Terminal Aerodrome Forecast
Issued by NWS Caribou, ME

Home | Current Version | Previous Version | Text Only | Print | Product List | Glossary On
Versions: 1 2 3 4 5 6 7 8 9 10 11 12 13 14 15 16
000
FTUS41 KCAR 261141
TAFCAR
TAF
KCAR 261141Z 2612/2712 25010G20KT P6SM BKN045
     FM261430 29010G18KT P6SM BKN030
     FM261900 01005KT P6SM SCT030 OVC100
     FM270100 36006KT 1SM -SN VV008
     FM270500 02017G25KT 1/2SM SN VV005=

USA.gov is the U.S. government's official web portal to all federal, state and local government web resources and services.